Plymouth, NH

10:34 AM EDT on March 29, 2017 (GMT -0400)
Plymouth

Weather History for K1P1 - February, 2012

Change the Weather History Date:

Monday, February 13, 2012

  Actual Average (KLCI) Record (KLCI)
Temperature  
Mean Temperature 18 °F -  
Max Temperature 34 °F 30 °F 53 °F (1984)
Min Temperature 2 °F 10 °F -14 °F (2016)
Degree Days  
Heating Degree Days 47    
Moisture  
Dew Point 5 °F    
Average Humidity 61    
Maximum Humidity 89    
Minimum Humidity 31    
Precipitation  
Precipitation 0.00 in - - ()
Sea Level Pressure  
Sea Level Pressure 29.76 in    
Wind  
Wind Speed 3 mph (WNW)    
Max Wind Speed 16 mph    
Max Gust Speed 28 mph    
Visibility 10 miles    
Events      
Averages and records for this station are not official NWS values.
T = Trace of Precipitation, MM = Missing Value Source: NWS Daily Summary

Daily Weather History Graph

Daily Weather History Graph

Search for Another Location

Airport or City:

Trip Planner

Search our weather history database for the weather conditions in past years. The results will help you decide how hot, cold, wet, or windy it might be!

Date:

Astronomy

Feb. 13, 2012 Rise Set
Actual Time 6:49 AM EST 5:13 PM EST
Civil Twilight 6:19 AM EST 5:43 PM EST
Nautical Twilight 5:45 AM EST 6:17 PM EST
Astronomical Twilight 5:12 AM EST 6:50 PM EST
Moon No Moon Rise 9:30 AM EST (2/13)
Length of Visible Light 11h 23m
Length of Day
10h 24m
Waning Gibbous, 62% of the Moon is Illuminated
Feb 13
Waning Gibbous
Feb 14
Last Quarter
Feb 21
New
Feb 29
First Quarter
Mar 8
Full

Hourly Weather History & Observations

Time (EST) Temp. Windchill Dew Point Humidity Pressure Visibility Wind Dir Wind Speed Gust Speed Precip Events Conditions
12:15 AM 8.4 °F - -0.6 °F 67% 29.80 in 10.0 mi Calm Calm - N/A   Overcast
12:35 AM 8.6 °F - 0.5 °F 70% 29.79 in 10.0 mi Calm Calm - N/A   Overcast
12:55 AM 7.9 °F - 0.1 °F 71% 29.79 in 10.0 mi Calm Calm - N/A   Overcast
1:15 AM 7.7 °F - 0.5 °F 72% 29.79 in 10.0 mi Calm Calm - N/A   Mostly Cloudy
1:35 AM 5.9 °F - 0.5 °F 78% 29.78 in 10.0 mi Calm Calm - N/A   Scattered Clouds
1:55 AM 5.4 °F - 0.5 °F 80% 29.78 in 10.0 mi Calm Calm - N/A   Clear
2:15 AM 4.1 °F - 0.3 °F 84% 29.77 in 10.0 mi Calm Calm - N/A   Scattered Clouds
2:35 AM 4.1 °F -3.2 °F 0.3 °F 84% 29.76 in 10.0 mi WSW 3.5 mph - N/A   Scattered Clouds
2:55 AM 3.7 °F - -0.2 °F 84% 29.77 in 10.0 mi Calm Calm - N/A   Scattered Clouds
3:15 AM 3.2 °F - -0.4 °F 85% 29.77 in 10.0 mi Calm Calm - N/A   Clear
3:35 AM 3.0 °F - -0.0 °F 87% 29.77 in 10.0 mi Calm Calm - N/A   Mostly Cloudy
3:55 AM 2.8 °F - 0.1 °F 88% 29.76 in 10.0 mi Calm Calm - N/A   Mostly Cloudy
4:15 AM 2.3 °F - -0.4 °F 88% 29.77 in 10.0 mi Calm Calm - N/A   Mostly Cloudy
4:35 AM 2.7 °F - -0.0 °F 88% 29.76 in 10.0 mi Calm Calm - N/A   Scattered Clouds
4:55 AM 2.3 °F - -0.4 °F 88% 29.76 in 10.0 mi Calm Calm - N/A   Mostly Cloudy
5:15 AM 2.8 °F - -0.0 °F 88% 29.76 in 10.0 mi Calm Calm - N/A   Overcast
5:35 AM 2.7 °F - -0.4 °F 87% 29.76 in 10.0 mi Calm Calm - N/A   Overcast
5:55 AM 3.2 °F - 0.5 °F 89% 29.76 in 10.0 mi Calm Calm - N/A   Overcast
6:15 AM 2.8 °F - -0.0 °F 88% 29.76 in 10.0 mi Calm Calm - N/A   Overcast
6:35 AM 3.2 °F - 0.5 °F 89% 29.76 in 10.0 mi Calm Calm - N/A   Overcast
6:55 AM 2.8 °F - 0.1 °F 88% 29.76 in 10.0 mi Calm Calm - N/A   Scattered Clouds
7:15 AM 3.2 °F - 0.5 °F 89% 29.76 in 10.0 mi Calm Calm - N/A   Mostly Cloudy
7:35 AM 3.2 °F - 0.5 °F 89% 29.76 in 10.0 mi Calm Calm - N/A   Scattered Clouds
7:55 AM 4.6 °F - 1.4 °F 86% 29.77 in 10.0 mi Calm Calm - N/A   Clear
8:35 AM 9.7 °F 3.2 °F 4.1 °F 78% 29.76 in 10.0 mi ENE 3.5 mph - N/A   Clear
9:15 AM 16.2 °F - 7.2 °F 68% 29.76 in 10.0 mi Calm Calm - N/A   Clear
9:35 AM 20.3 °F 10.6 °F 10.0 °F 65% 29.76 in 10.0 mi West 8.1 mph - N/A   Clear
9:55 AM 22.6 °F 12.6 °F 11.1 °F 61% 29.76 in 10.0 mi West 9.2 mph - N/A   Clear
10:15 AM 24.8 °F 13.4 °F 11.5 °F 57% 29.75 in 10.0 mi WNW 12.7 mph 17.3 mph N/A   Clear
10:35 AM 25.7 °F 15.1 °F 11.3 °F 55% 29.75 in 10.0 mi WNW 11.5 mph 19.6 mph N/A   Clear
10:55 AM 26.4 °F 17.3 °F 10.9 °F 52% 29.75 in 10.0 mi WNW 9.2 mph 20.7 mph N/A   Clear
11:15 AM 27.3 °F 16.6 °F 10.8 °F 50% 29.74 in 10.0 mi West 12.7 mph 20.7 mph N/A   Clear
11:35 AM 27.7 °F 16.6 °F 10.0 °F 48% 29.75 in 10.0 mi West 13.8 mph 21.9 mph N/A   Clear
11:55 AM 28.9 °F 19.2 °F 9.9 °F 45% 29.74 in 10.0 mi WNW 11.5 mph 19.6 mph N/A   Clear
12:15 PM 30.0 °F 20.5 °F 10.4 °F 44% 29.73 in 10.0 mi WNW 11.5 mph 19.6 mph N/A   Clear
12:35 PM 30.7 °F 20.9 °F 9.5 °F 41% 29.73 in 10.0 mi WNW 12.7 mph - N/A   Clear
12:55 PM 31.8 °F 25.4 °F 10.8 °F 42% 29.72 in 10.0 mi West 6.9 mph - N/A   Clear
1:15 PM 32.2 °F 23.2 °F 9.3 °F 39% 29.72 in 10.0 mi West 11.5 mph 19.6 mph N/A   Clear
1:35 PM 33.1 °F 23.9 °F 7.7 °F 35% 29.72 in 10.0 mi West 12.7 mph 23.0 mph N/A   Clear
1:55 PM 33.1 °F 24.4 °F 8.2 °F 35% 29.72 in 10.0 mi West 11.5 mph 25.3 mph N/A   Clear
2:15 PM 33.8 °F 23.9 °F 6.6 °F 32% 29.72 in 10.0 mi West 15.0 mph 27.6 mph N/A   Clear
2:35 PM 34.5 °F 24.8 °F 7.2 °F 32% 29.72 in 10.0 mi West 15.0 mph 27.6 mph N/A   Clear
2:55 PM 34.9 °F 26.6 °F 7.3 °F 32% 29.73 in 10.0 mi WNW 11.5 mph 19.6 mph N/A   Clear
3:15 PM 34.7 °F 24.7 °F 6.8 °F 31% 29.73 in 10.0 mi WNW 16.1 mph 27.6 mph N/A   Clear
3:35 PM 34.7 °F 26.4 °F 7.2 °F 32% 29.74 in 10.0 mi WNW 11.5 mph 20.7 mph N/A   Clear
3:55 PM 34.7 °F 27.5 °F 7.9 °F 33% 29.75 in 10.0 mi WNW 9.2 mph 19.6 mph N/A   Clear
4:15 PM 34.3 °F 25.9 °F 8.8 °F 35% 29.75 in 10.0 mi WNW 11.5 mph 19.6 mph N/A   Clear
4:35 PM 34.2 °F 26.8 °F 7.7 °F 33% 29.76 in 10.0 mi West 9.2 mph 19.6 mph N/A   Clear
4:55 PM 33.4 °F 25.9 °F 7.5 °F 34% 29.77 in 10.0 mi West 9.2 mph - N/A   Clear
5:15 PM 32.5 °F 26.2 °F 8.1 °F 36% 29.78 in 10.0 mi WNW 6.9 mph - N/A   Clear
5:35 PM 32.4 °F 29.1 °F 8.1 °F 36% 29.79 in 10.0 mi WNW 3.5 mph - N/A   Clear
5:55 PM 32.0 °F - 8.2 °F 37% 29.80 in 10.0 mi Calm Calm - N/A   Clear
6:15 PM 30.2 °F - 9.1 °F 41% 29.81 in 10.0 mi Calm Calm - N/A   Clear
6:35 PM 26.1 °F 20.5 °F 12.7 °F 57% 29.82 in 10.0 mi ENE 4.6 mph - N/A   Clear
6:55 PM 28.9 °F - 10.2 °F 46% 29.83 in 10.0 mi Calm Calm - N/A   Clear
7:15 PM 26.6 °F 22.6 °F 12.7 °F 56% 29.84 in 10.0 mi SW 3.5 mph - N/A   Scattered Clouds
7:35 PM 26.1 °F - 13.1 °F 58% 29.84 in 10.0 mi Calm Calm - N/A   Scattered Clouds
7:55 PM 25.3 °F - 12.9 °F 59% 29.85 in 10.0 mi Calm Calm - N/A   Clear
8:15 PM 23.5 °F - 13.8 °F 66% 29.86 in 10.0 mi Calm Calm - N/A   Mostly Cloudy
8:35 PM 24.3 °F - 13.8 °F 64% 29.87 in 10.0 mi Calm Calm - N/A   Overcast
8:55 PM 23.4 °F - 12.9 °F 64% 29.87 in 10.0 mi Calm Calm - N/A   Mostly Cloudy
9:15 PM 22.1 °F - 15.3 °F 75% 29.87 in 10.0 mi Calm Calm - N/A   Mostly Cloudy
9:35 PM 22.5 °F - 14.9 °F 73% 29.87 in 10.0 mi Calm Calm - N/A   Mostly Cloudy
9:55 PM 20.5 °F - 15.6 °F 81% 29.87 in 10.0 mi Calm Calm - N/A   Scattered Clouds
10:15 PM 20.1 °F - 15.4 °F 82% 29.88 in 10.0 mi Calm Calm - N/A   Clear
10:35 PM 19.0 °F - 14.7 °F 83% 29.89 in 10.0 mi Calm Calm - N/A   Clear
10:55 PM 17.6 °F - 14.0 °F 86% 29.89 in 10.0 mi Calm Calm - N/A   Clear
11:15 PM 17.1 °F - 13.6 °F 86% 29.90 in 10.0 mi Calm Calm - N/A   Clear
11:35 PM 17.4 °F - 13.8 °F 86% 29.91 in 10.0 mi Calm Calm - N/A   Clear
11:55 PM 16.3 °F - 13.1 °F 87% 29.91 in 10.0 mi Calm Calm - N/A   Clear